User: anonymous   Login
Location: Unspecified
(0.0000°N, 0.0000°E)
Time: 05:59:30
(UTC+02:00)
Language:

Timation 2 Rocket - Orbit

View from above orbital plane
View from above orbital plane
View from above satellite
View from above satellite

Ground track
Ground track

The orbit data is extracted from the following two-line orbital elements,

1 04159U 69082AB  16183.50545221 -.00000005  00000-0  46722-4 0  9998
2 04159  69.9613 158.4064 0114909 167.5026 192.8960 13.72349353339970
Epoch (UTC): 01 July 2016 12:07:51
Eccentricity: 0.0114909
inclination: 69.9613°
perigee height: 906 km
apogee height: 1076 km
right ascension of ascending node: 158.4064°
argument of perigee: 167.5026°
revolutions per day: 13.72349353
mean anomaly at epoch: 192.8960°
orbit number at epoch: 33997

The dashed part of the orbit path shows where the satellite is in the earth's shadow,  

DLR